Regional Weather Roundup
Issued by NWS

Home | Current Version | Previous Version | Text Only | Print | Product List | Glossary Off
Versions: 1 2 3 4 5 6 7 8 9 10 11 12 13 14 15 16 17 18 19 20 21 22 23 24 25 26 27 28 29 30 31 32 33 34 35 36 37 38 39 40 41 42 43 44 45 46 47 48 49 50

000
ASUS43 KDTX 201801
RWRMI
MICHIGAN HOURLY REGIONAL WEATHER ROUNDUP
NATIONAL WEATHER SERVICE DETROIT/PONTIAC MI
100 PM EST SAT DEC 20 2014

NOTE: "FAIR" INDICATES FEW OR NO CLOUDS BELOW 12,000 FEET WITH NO
SIGNIFICANT WEATHER AND/OR OBSTRUCTION TO VISIBILITY.

MIZ047>049-052>055-059>063-066>070-074>076-081>083-201900-
SOUTHEAST LOWER MICHIGAN

CITY           SKY/WX    TMP DP  RH WIND       PRES   REMARKS
ADRIAN         CLOUDY    30  21  69 S7        30.27F WCI  23
6HR MIN TEMP:  28; 6HR MAX TEMP:  30;

ALMA           PTSUNNY   29  25  84 CALM      30.27F
ANN ARBOR      CLOUDY    30  21  69 SE5       30.26F WCI  25
BAD AXE        MOSUNNY   30  23  74 SW5       30.28S WCI  25
6HR MIN TEMP:  13; 6HR MAX TEMP:  30;

CARO           PTSUNNY   31  22  67 NW3       30.27F
DETROIT CITY   CLOUDY    32  20  61 CALM      30.29F
6HR MIN TEMP:  27; 6HR MAX TEMP:  32;

DETROIT        CLOUDY    30  21  69 CALM      30.29F
6HR MIN TEMP:  26; 6HR MAX TEMP:  31;

FLINT          CLOUDY    32  22  66 CALM      30.27F
6HR MIN TEMP:  18; 6HR MAX TEMP:  32;

GROSSE ILE     CLOUDY    30  23  74 CALM      30.27F
HILLSDALE      CLOUDY    29  21  74 CALM      30.24S
6HR MIN TEMP:  27; 6HR MAX TEMP:  29;

HOWELL         CLOUDY    29  21  73 S3        30.25F

CITY           SKY/WX    TMP DP  RH WIND       PRES   REMARKS
JACKSON        CLOUDY    29  20  69 CALM      30.25F
6HR MIN TEMP:  26; 6HR MAX TEMP:  29;

LAMBERTVILLE   CLOUDY    32  21  64 CALM      30.27F
LANSING        MOSUNNY   30  21  69 S3        30.26F
6HR MIN TEMP:  18; 6HR MAX TEMP:  30;

LAPEER         CLOUDY    28  21  72 CALM      30.27F
MASON          CLOUDY    28  20  72 CALM      30.26F
MONROE         CLOUDY    28  27  93 NE3       30.27F FOG
MT. CLEMENS    CLOUDY    30  22  70 W3        30.25F
6HR MIN TEMP:  22; 6HR MAX TEMP:  30;

PONTIAC        CLOUDY    28  20  71 W7        30.25F WCI  21
6HR MIN TEMP:  21; 6HR MAX TEMP:  28;

PORT HOPE        N/A     30  22  72 CALM      30.26F
6HR MIN TEMP:  25; 6HR MAX TEMP:  31;

PORT HURON     CLOUDY    28  21  74 SW3       30.28F
TRI CITIES     MOSUNNY   30  22  72 CALM      30.28F
6HR MIN TEMP:  19; 6HR MAX TEMP:  31;

TROY           CLOUDY    31  20  64 SW5       30.29F WCI  26
SAGINAW HB     MOSUNNY   30  23  74 CALM      30.28F
$$
MIZ043>046-050>051-056>058-064>065-071>073-077>080-201900-
SOUTHWEST LOWER MICHIGAN

CITY           SKY/WX    TMP DP  RH WIND       PRES   REMARKS
BATTLE CREEK   PTSUNNY   32  21  64 CALM      30.26F
6HR MIN TEMP:  21; 6HR MAX TEMP:  32;

BENTON HARBOR  CLOUDY    31  27  85 SE3       30.26F
6HR MIN TEMP:  28; 6HR MAX TEMP:  31;

BIG RAPIDS     PTSUNNY   27  25  90 CALM      30.24F
6HR MIN TEMP:  15; 6HR MAX TEMP:  28;

COLDWATER      PTSUNNY   31  22  69 SW3       30.25F
6HR MIN TEMP:  23; 6HR MAX TEMP:  31;

FREMONT        CLOUDY    28  25  89 CALM      30.25S
HOLLAND        CLOUDY    30  24  78 SE5       30.27F WCI  25
6HR MIN TEMP:  21; 6HR MAX TEMP:  30;

GRAND RAPIDS   CLOUDY    31  23  72 SE3       30.26F
6HR MIN TEMP:  17; 6HR MAX TEMP:  31;

IONIA          FAIR      31  23  72 S6        30.25F WCI  25
KALAMAZOO      CLOUDY    30  24  78 S7        30.27S WCI  23
6HR MIN TEMP:  17; 6HR MAX TEMP:  30;

LUDINGTON      CLOUDY    28  23  79 E6        30.26F WCI  22
6HR MIN TEMP:  22; 6HR MAX TEMP:  28;

MARSHALL       PTSUNNY   30  21  69 CALM      30.25F
MOUNT PLEASANT PTSUNNY   27  24  86 CALM      30.26F
6HR MIN TEMP:  14; 6HR MAX TEMP:  28;

MUSKEGON       LGT SNOW  28  23  81 SE5       30.27S WCI  23
6HR MIN TEMP:  19; 6HR MAX TEMP:  28; 6HR PCP: TRACE;

SOUTH HAVEN    CLOUDY    30  26  86 CALM      30.27S
$$
MIZ016>042-201900-
NORTHERN LOWER MICHIGAN

CITY           SKY/WX    TMP DP  RH WIND       PRES   REMARKS
ALPENA         MOSUNNY   27  21  78 CALM      30.28F
6HR MIN TEMP:   8; 6HR MAX TEMP:  27;

BEAVER ISLAND  PTSUNNY   29  25  85 SE5       30.26F WCI  24
6HR MIN TEMP:  24; 6HR MAX TEMP:  29;

BELLAIRE       CLOUDY    28  22  78 CALM      30.27F
6HR MIN TEMP:  25; 6HR MAX TEMP:  28;

CADILLAC       PTSUNNY   26  20  76 CALM      30.21F
CHARLEVOIX     CLOUDY    27  22  80 E6        30.29F WCI  21
6HR MIN TEMP:  24; 6HR MAX TEMP:  27;

FRANKFORT      CLOUDY    29  23  78 SE3       30.26F
GAYLORD        CLOUDY    24  20  84 CALM      30.22F
6HR MIN TEMP:  19; 6HR MAX TEMP:  24;

GRAYLING       CLOUDY    23  19  83 CALM      30.24F
6HR MIN TEMP:  14; 6HR MAX TEMP:  23;

HARBOR SPRINGS CLOUDY    25  19  79 E5        30.27S WCI  19
HOUGHTON LAKE  CLOUDY    24  20  84 CALM      30.24F
6HR MIN TEMP:  11; 6HR MAX TEMP:  26;

MANISTEE       CLOUDY    27  19  74 SE3       30.26F
OSCODA         MOSUNNY   29  24  80 CALM      30.27F
PELLSTON       CLOUDY    24  20  84 CALM      30.27F
6HR MIN TEMP:   0; 6HR MAX TEMP:  24;

ROGERS CITY    MOSUNNY   27  21  80 CALM      30.28F
TRAVERSE CITY  CLOUDY    30  22  72 CALM      30.25F
6HR MIN TEMP:  25; 6HR MAX TEMP:  30;

$$
MIZ007>008-015-201900-
EASTERN UPPER MICHIGAN

CITY           SKY/WX    TMP DP  RH WIND       PRES   REMARKS
KINROSS        MOSUNNY   25  23  93 SE5       30.27S WCI  19
6HR MIN TEMP:   7; 6HR MAX TEMP:  25;

MACKINAC ISLAN CLOUDY    28  22  79 CALM      30.27S
6HR MIN TEMP:  17; 6HR MAX TEMP:  28;

NEWBERRY       MOSUNNY   27  21  77 SW3       30.24F
S. S. MARIE    MOSUNNY   23  18  81 E5        30.29R WCI  17
6HR MIN TEMP:   9; 6HR MAX TEMP:  23;

MUNISING         N/A     29  19  66 S5        30.24S WCI  24
6HR MIN TEMP:  12; 6HR MAX TEMP:  29;

$$
MIZ004>006-011>014-085-201900-
CENTRAL UPPER MICHIGAN

CITY           SKY/WX    TMP DP  RH WIND       PRES   REMARKS
MANISTIQUE     PTSUNNY   31  24  76 MISG      30.24F
6HR MIN TEMP:  13; 6HR MAX TEMP:  31;

ESCANABA       CLOUDY    27  19  74 W3        30.25F
6HR MIN TEMP:   7; 6HR MAX TEMP:  27;

MENOMINEE      CLOUDY    27  23  86 CALM      30.25F
6HR MIN TEMP:  14; 6HR MAX TEMP:  27;

SAWYER-GWINN   PTSUNNY   21  19  93 S3        30.19F
$$
MIZ001>003-009>011-084-201900-
WESTERN UPPER MICHIGAN

CITY           SKY/WX    TMP DP  RH WIND       PRES   REMARKS
IRON MOUNTAIN  CLOUDY    24  21  88 SE5       30.20F WCI  18
6HR MIN TEMP:  15; 6HR MAX TEMP:  24;

HOUGHTON       CLOUDY    24  20  84 CALM      30.16F
6HR MIN TEMP:  13; 6HR MAX TEMP:  24;

COPPER HARBOR    N/A     29  22  75 SW6       30.19F WCI  23
6HR MIN TEMP:  21; 6HR MAX TEMP:  29;

IRONWOOD       CLOUDY    28  25  86 SE7       30.12F WCI  21
6HR MIN TEMP:  25; 6HR MAX TEMP:  28;

$$

ABBREVIATIONS USED IN REMARKS
   TC - TEMPERATURE IN CELSIUS
  WCI - WIND CHILL INDEX
   HX - HEAT INDEX
  VSB - VISIBILITY




USA.gov is the U.S. government's official web portal to all federal, state and local government web resources and services.